Weather Roundup
Issued by NWS Springfield, MO

Home | Current Version | Previous Version | Text Only | Print | Product List | Glossary On
Versions: 1 2 3 4 5 6 7 8 9 10 11 12 13 14 15 16 17 18 19 20 21 22 23 24 25 26 27 28 29 30 31 32 33 34 35 36 37 38 39 40 41 42 43 44 45 46 47 48 49 50
000
NZUS99 KSGF 251207
HRRSGF

HOURLY WEATHER
NATIONAL WEATHER SERVICE SPRINGFIELD MO
600 AM CST THU DEC 25 2014

......SGF CWA......

CITY           SKY/WX    TMP DP  RH WIND       PRES   REMARKS
SPRINGFIELD    CLEAR     31  27  85 S14       29.90R WCI  21
6HR MIN TEMP:  30; 6HR MAX TEMP:  32;

JOPLIN         CLEAR     35  28  75 S15       29.88S WCI  25
6HR MIN TEMP:  31; 6HR MAX TEMP:  36;

WEST PLAINS    CLEAR     30  26  85 S6        29.97S WCI  24
6HR MIN TEMP:  27; 6HR MAX TEMP:  36;

ROLLA          CLEAR     30  27  88 S10       29.91R WCI  21
6HR MIN TEMP:  30; 6HR MAX TEMP:  35;

OSAGE BEACH    CLEAR     30  27  86 S7        29.91S WCI  23

......SURROUNDING SGF CWA......

CITY           SKY/WX    TMP DP  RH WIND       PRES   REMARKS
CHANUTE        CLEAR     34  28  79 S14       29.81S WCI  25
PARSONS        PTCLDY    34  29  82 S9        29.84R WCI  27
COFFEYVILLE    PTCLDY    33  28  81 S14       29.83S WCI  23
EMPORIA        MOCLDY    30  26  85 S18G26    29.72S WCI  18
GROVE OK       PTCLDY    36  32  87 S9        29.92R WCI  29
ROGERS AR      CLEAR     32  29  88 S12       29.93R WCI  23
SILOAM SPRINGS PTCLDY    34  25  69 S13       29.94S WCI  25
HARRISON AR    CLEAR     29  27  92 SE7       29.95R WCI  22
NEAR YELLVILLE CLEAR     28  23  80 S5        29.98S WCI  23

......KANSAS AND MISSOURI......

CITY           SKY/WX    TMP DP  RH WIND       PRES   REMARKS
KANSAS CTY INT PTCLDY    32  27  81 S13       29.76F WCI  22
DOWNTOWN KC    PTCLDY    33  28  81 S10       29.79F WCI  25
COLUMBIA       CLEAR     30  28  92 S10       29.90R WCI  21
SEDALIA        CLEAR     32  28  85 S12       29.87S WCI  23
ST JOSEPH      PTCLDY    30  26  85 S9        29.76F WCI  22
ST LOUIS       PTCLDY    36  29  75 S5        29.97R WCI  32
SPIRIT OF STL  CLEAR     32  28  85 S3        29.96R
KIRKSVILLE     CLEAR     31  29  92 S12       29.84R WCI  22
WICHITA        PTCLDY    35  24  64 S18       29.68F WCI  24
TOPEKA         CLEAR     36  27  69 S12       29.74F WCI  28
OLATHE         PTCLDY    30  27  88 S10       29.78F WCI  21

......TENNESSEE......

CITY           SKY/WX    TMP DP  RH WIND       PRES   REMARKS
MEMPHIS        CLEAR     33  30  88 S3        30.11R
NASHVILLE      CLOUDY    40  34  79 W6        30.10R

......ARKANSAS.......

CITY           SKY/WX    TMP DP  RH WIND       PRES   REMARKS
FAYETTEVILLE   CLEAR     33  29  85 S10       29.95R WCI  25
FT SMITH       CLEAR     29  27  92 NE8       30.02R WCI  21
LITTLE ROCK    CLEAR     30  27  88 S5        30.10R WCI  25

......OKLAHOMA.......

CITY           SKY/WX    TMP DP  RH WIND       PRES   REMARKS
TULSA          MOCLDY    37  28  70 S13       29.86S WCI  29
PONCA CITY     CLEAR     37  25  61 S10G20    29.76S WCI  30
MCALESTER      PTCLDY    38  28  67 S8        29.95S WCI  32
OKLAHOMA CITY  PTCLDY    34  25  69 SE13      29.81S WCI  25

......IOWA............

CITY           SKY/WX    TMP DP  RH WIND       PRES   REMARKS
DES MOINES     MOCLDY    32  28  85 S10       29.73S WCI  24
QUAD CITIES    CLOUDY    34  27  75 SW9       29.84R WCI  27

......ILLINOIS........

CITY           SKY/WX    TMP DP  RH WIND       PRES   REMARKS
QUINCY         PTCLDY    33  28  81 S8        29.89R WCI  26
CHICAGO        CLOUDY    34  27  75 W13G22    29.83R WCI  25



USA.gov is the U.S. government's official web portal to all federal, state and local government web resources and services.